Regional Weather Roundup
Issued by NWS

Home | Current Version | Previous Version | Graphics & Text | Print | Product List | Glossary On
Versions: 1 2 3 4 5 6 7 8 9 10 11 12 13 14 15 16 17 18 19 20 21 22 23 24 25 26 27 28 29 30 31 32 33 34 35 36 37 38 39 40 41 42 43 44 45 46 47 48 49 50
000
ASUS43 KLSX 231259
RWRMO

WEATHER SUMMARY FOR MISSOURI
NATIONAL WEATHER SERVICE SPRINGFIELD MO
800 AM CDT SAT AUG 23 2014

NOTE: "FAIR" INDICATES FEW OR NO CLOUDS BELOW 12,000 FEET WITH NO
       SIGNIFICANT WEATHER AND/OR OBSTRUCTIONS TO VISIBILITY.
       CURRENT SKY AND/OR WEATHER CONDITIONS ARE NOT AVAILABLE FOR
       CHILLICOTHE AND FARMINGTON.

MOZ001>031-035>038-043-044-053-054-231400-
...NORTHERN AND WESTERN MISSOURI...

CITY           SKY/WX    TMP DP  RH WIND       PRES   REMARKS
KANSAS CTY INT PTSUNNY   77  70  79 N6        29.95R
KANSAS C DTWN  MOSUNNY   82  68  62 VRB5      29.92R
LEE`S SUMMIT   SUNNY     78  69  73 S8        29.94R
ST JOSEPH      PTSUNNY   76  73  91 E6        29.91R
KIRKSVILLE     PTSUNNY   79  75  87 W3        29.98R

$$
MOZ066>068-077>081-088>096-101>105-231400-
...SOUTHWEST MISSOURI...

CITY           SKY/WX    TMP DP  RH WIND       PRES   REMARKS
SPRINGFIELD    SUNNY     77  71  82 S9        30.01R
JOPLIN         MOSUNNY   80  69  69 S14       29.97S

$$
MOZ032>034-039>042-045>050-055>058-069>072-231400-
...CENTRAL MISSOURI...

CITY           SKY/WX    TMP DP  RH WIND       PRES   REMARKS
COLUMBIA       SUNNY     80  74  81 SW6       29.98R
JEFFERSON CITY SUNNY     80  73  79 CALM      29.97R
ROLLA          SUNNY     78  72  81 SW8       30.00R
SEDALIA        SUNNY     81  71  71 S10       29.97R
OSAGE BEACH    SUNNY     79  72  78 CALM      29.99R

$$
MOZ051-052-059>065-231400-
...EAST CENTRAL MISSOURI...

CITY           SKY/WX    TMP DP  RH WIND       PRES   REMARKS
ST LOUIS INTL  MOSUNNY   83  74  74 W6        29.96R
SPIRIT OF STL  MOSUNNY   80  74  81 W6        29.95R
ST CHARLES     SUNNY     79  77  94 SW3       29.94S FOG

$$
MOZ072>076-082>087-097>100-106>115-231400-
...SOUTH CENTRAL AND SOUTHEAST MISSOURI...

CITY           SKY/WX    TMP DP  RH WIND       PRES   REMARKS
CAPE GIRARDEAU SUNNY     79  76  90 CALM      29.97R
FARMINGTON     SUNNY     81  72  74 W3        30.01R
POPLAR BLUFF   SUNNY     78  73  84 SW5       29.97S
WEST PLAINS    MOSUNNY   78  73  84 W5        30.04R

$$



USA.gov is the U.S. government's official web portal to all federal, state and local government web resources and services.